[Date Prev][Date Next][Thread Prev][Thread Next] - [Date Index][Thread Index][Author Index]
MIR and RS-18 Keps 11-20
- Subject: [sarex] MIR and RS-18 Keps 11-20
- From: "Dr Dave Larsen [ PhD ]" <doc@xxxxxxxxxxx>
- Date: Fri, 20 Nov 1998 14:59:25 -0800
MIR
1 16609U 86017A 98324.53049496 .00023544 00000-0 18669-3 0 9801
2 16609 51.6601 331.8854 0007838 351.7877 8.2989 15.71141061728582
SPUTNIK 41
1 25533U 98062C 98324.20520567 .00126432 00000-0 88218-3 0 00142
2 25533 051.6641 333.4594 0008314 003.0643 357.0400 15.73372863001393
----
Via the sarex mailing list at AMSAT.ORG courtesy of AMSAT-NA.
To unsubscribe, send "unsubscribe sarex" to Majordomo@amsat.org
AMSAT Home